DW7685 Weather Reports


time (UTC)temp
F
wind
direction
speed
knots
gust
knots
rain 1hr
in
rain 24hr
in
rain mn
in
humidity
%
barometer
mb
20260509223628 69 44 0.0 2.6 0.00 0.00 0.00 47 1007.6
20260509222555 69 67 0.0 1.7 0.00 0.00 0.00 48 1007.5
20260509221606 69 75 0.0 0.0 0.00 0.00 0.00 50 1007.5
20260509215447 67 87 0.0 0.0 0.00 0.00 0.00 53 1007.5
20260509214510 67 87 0.0 0.0 0.00 0.00 0.00 54 1007.4
20260509213511 67 87 0.0 0.0 0.00 0.00 0.00 48 1007.3
20260509212531 68 87 0.0 0.9 0.00 0.00 0.00 47 1007.2
20260509211541 69 83 0.0 0.0 0.00 0.00 0.00 49 1007.1
20260509210559 68 91 0.0 0.0 0.00 0.00 0.00 49 1007.1
20260509205534 67 90 0.0 0.0 0.00 0.00 0.00 50 1007.0
20260509204555 67 93 0.0 0.0 0.00 0.00 0.00 51 1006.9
20260509202443 67 164 0.0 0.0 0.00 0.00 0.00 50 1006.9
20260509201430 66 170 0.0 0.0 0.00 0.00 0.00 51 1006.8
20260509195336 66 235 0.9 5.2 0.00 0.00 0.00 53 1006.7
20260509194309 65 253 0.0 2.6 0.00 0.00 0.00 53 1006.9
20260509193326 65 251 0.9 7.0 0.00 0.00 0.00 53 1007.1
20260509192257 65 281 0.0 3.5 0.00 0.00 0.00 53 1007.1
20260509191257 65 284 0.9 3.5 0.00 0.00 0.00 54 1007.3
20260509190255 65 244 5.2 11.3 0.00 0.00 0.00 52 1007.1
20260509184158 67 285 2.6 7.8 0.00 0.00 0.00 50 1007.2
20260509183213 67 269 0.0 7.8 0.00 0.00 0.00 50 1007.2
20260509182212 65 295 3.5 7.8 0.00 0.00 0.00 51 1007.4
20260509181156 66 265 2.6 7.0 0.00 0.00 0.00 49 1007.5
20260509180131 66 259 0.0 6.1 0.00 0.00 0.00 49 1007.8
20260509174019 64 90 0.0 0.0 0.00 0.00 0.00 52 1008.1
20260509173026 64 86 0.0 0.0 0.00 0.00 0.00 53 1008.3
20260509172048 63 142 0.0 0.0 0.00 0.00 0.00 53 1008.3
20260509171043 63 250 0.0 0.0 0.00 0.00 0.00 55 1008.5
20260509164919 61 94 0.0 0.0 0.00 0.00 0.00 58 1008.5
20260509163912 61 94 0.0 0.0 0.00 0.00 0.00 56 1008.8
20260509162848 61 94 0.0 0.0 0.00 0.00 0.00 55 1008.7
20260509161843 62 94 0.0 0.0 0.00 0.00 0.00 55 1008.8
20260509160859 61 94 0.0 0.0 0.00 0.00 0.00 56 1008.8
20260509155836 61 94 0.0 0.0 0.00 0.00 0.00 56 1008.8
20260509153639 62 88 0.0 0.0 0.00 0.00 0.00 56 1008.4
20260509152647 61 88 0.0 0.0 0.00 0.00 0.00 56 1008.4
20260509151632 62 88 0.0 0.0 0.00 0.00 0.00 54 1008.6
20260509150646 61 88 0.0 0.0 0.00 0.00 0.00 55 1008.8
20260509145657 60 88 0.0 0.0 0.00 0.00 0.00 58 1008.8
20260509142420 60 85 0.0 0.0 0.00 0.00 0.00 60 1008.6
20260509135115 58 45 0.0 0.0 0.00 0.00 0.00 64 1009.3
20260509134116 57 45 0.0 0.0 0.00 0.00 0.00 66 1009.4
20260509133135 56 341 0.0 0.0 0.00 0.00 0.00 66 1009.5
20260509132127 56 341 0.0 0.0 0.00 0.00 0.00 65 1009.3
20260509131147 56 341 0.0 0.0 0.00 0.00 0.00 64 1009.2
20260509124948 55 341 0.0 0.0 0.00 0.00 0.00 64 1009.1
20260509123919 56 341 0.0 0.0 0.00 0.00 0.00 62 1009.1
20260509122911 55 341 0.0 0.0 0.00 0.00 0.00 61 1009.3
20260509121931 55 341 0.0 0.0 0.00 0.00 0.00 61 1009.4
20260509120923 55 341 0.0 0.0 0.00 0.00 0.00 61 1009.4
20260509112530 55 341 0.0 0.0 0.00 0.00 0.00 61 1009.4
20260509111512 55 341 0.0 0.0 0.00 0.00 0.00 60 1009.2
20260509110446 55 338 0.0 1.7 0.00 0.00 0.00 59 1009.2
20260509105438 55 301 0.0 0.0 0.00 0.00 0.00 59 1009.1
20260509103321 55 301 0.0 0.0 0.00 0.00 0.00 58 1009.2
20260509102252 55 301 0.0 0.0 0.00 0.00 0.00 58 1009.1
20260509101245 55 301 0.0 0.0 0.00 0.00 0.00 57 1009.0
20260509100240 55 301 0.0 0.0 0.00 0.00 0.00 57 1009.0
20260509095255 55 301 0.0 0.0 0.00 0.00 0.00 57 1009.0
20260509094233 55 301 0.0 0.0 0.00 0.00 0.00 56 1009.2
20260509093226 55 301 0.0 0.0 0.00 0.00 0.00 56 1009.3
20260509092224 56 301 0.0 0.0 0.00 0.00 0.00 55 1009.4
20260509091205 56 0 0.0 1.7 0.00 0.00 0.00 55 1009.3
20260509090222 56 297 0.0 0.0 0.00 0.00 0.00 55 1009.2
20260509085152 55 297 0.0 0.0 0.00 0.00 0.00 54 1009.4
20260509084158 56 296 0.0 1.7 0.00 0.00 0.00 54 1009.4
20260509083219 56 0 0.0 2.6 0.00 0.00 0.00 53 1009.5
20260509081108 56 296 0.0 2.6 0.00 0.00 0.00 52 1009.5
20260509080044 56 297 0.0 0.0 0.00 0.00 0.00 52 1009.7
20260509075020 56 296 0.0 0.0 0.00 0.00 0.00 52 1009.8
20260509074025 56 296 0.0 0.0 0.00 0.00 0.00 52 1009.8
20260509073018 56 304 0.0 0.0 0.00 0.00 0.00 52 1009.8
20260509072029 56 317 0.0 1.7 0.00 0.00 0.00 51 1010.0
20260509064833 55 293 0.0 2.6 0.00 0.00 0.00 52 1010.1
20260509063814 55 292 0.0 1.7 0.00 0.00 0.00 53 1010.1
20260509061643 55 293 0.0 5.2 0.00 0.00 0.00 53 1010.4
20260509055503 55 303 0.0 5.2 0.00 0.00 0.00 53 1010.6
20260509052237 56 326 0.0 3.5 0.00 0.00 0.00 53 1010.7
20260509050053 55 306 0.0 1.7 0.00 0.00 0.00 54 1010.9
20260509045049 56 292 0.0 0.9 0.00 0.00 0.00 53 1010.9
20260509044015 55 280 0.0 0.0 0.00 0.00 0.00 54 1010.7
20260509042948 55 276 0.0 0.0 0.00 0.00 0.00 54 1010.7
20260509041954 55 276 0.0 0.0 0.00 0.00 0.00 55 1010.7
20260509040948 55 276 0.0 0.0 0.00 0.00 0.00 54 1010.8
20260509035932 55 276 0.0 0.0 0.00 0.00 0.00 55 1010.8
20260509034944 55 276 0.0 0.0 0.00 0.00 0.00 55 1010.8
20260509033947 55 276 0.0 0.0 0.00 0.00 0.00 55 1010.9
20260509031817 55 273 0.0 0.0 0.00 0.00 0.00 55 1011.1
20260509030802 55 273 0.0 0.0 0.00 0.00 0.00 54 1011.2
20260509025824 56 273 0.0 0.0 0.00 0.00 0.00 52 1011.2
20260509024804 56 273 0.0 0.0 0.00 0.00 0.00 51 1011.0
20260509023820 56 273 0.0 0.0 0.00 0.00 0.00 52 1011.2
20260509022837 57 273 0.0 0.0 0.00 0.00 0.00 50 1011.1
20260509021830 58 273 0.0 0.0 0.00 0.00 0.00 49 1011.0
20260509020805 58 273 0.0 0.0 0.00 0.00 0.00 48 1011.1
20260509014719 59 281 0.9 4.3 0.00 0.00 0.00 47 1010.8
20260509013703 59 286 0.0 4.3 0.00 0.00 0.00 46 1010.9
20260509012646 59 285 0.0 2.6 0.00 0.00 0.00 45 1011.1
20260509011700 59 286 0.0 0.0 0.00 0.00 0.00 45 1011.1
20260509010655 59 286 0.0 2.6 0.00 0.00 0.00 44 1010.9
20260509005702 60 289 0.0 0.0 0.00 0.00 0.00 43 1010.9
20260509003606 60 289 0.0 0.0 0.00 0.00 0.00 43 1011.1
20260509002622 60 289 0.0 3.5 0.00 0.00 0.00 42 1010.9
20260509001550 61 285 0.9 3.5 0.00 0.00 0.00 42 1010.9
20260509000532 61 269 0.9 3.5 0.00 0.00 0.00 41 1010.7
20260508235511 63 279 0.0 3.5 0.00 0.00 0.00 38 1010.7
20260508234450 64 76 0.0 0.0 0.00 0.00 0.00 37 1010.5
20260508233439 64 76 0.0 0.0 0.00 0.00 0.00 37 1010.5
20260508232435 64 76 0.0 1.7 0.00 0.00 0.00 37 1010.4
20260508231419 65 51 0.0 3.5 0.00 0.00 0.00 36 1010.3